Vorticity
2 2 2 1 0 -0 -1 -1 -1 -1 -1 -1 -2 -2 -2 -2 -2 -2 -3 -3 -1 1 2 2 2 2 0 -2 -2 -1 0 2 3 3 4 6 9 13 17 22 23 20 17 14 13 12 11 11 10 9 8 8 8 9 10 10 11 12 14 15 17 19 21 24 25 25 24 21 19
1 1 1 1 1 1 0 -0 -1 -2 -3 -4 -4 -4 -3 -3 -2 -1 -2 -2 -1 0 2 2 2 1 1 1 1 1 2 3 3 3 2 3 6 12 19 26 24 20 14 11 10 10 10 10 9 8 8 8 8 9 10 12 12 13 15 16 17 19 20 22 25 27 26 23 18
-0 -0 0 1 1 1 0 -1 -2 -4 -5 -6 -6 -4 -3 -2 -2 -2 -2 -2 -1 -1 0 2 2 3 3 3 4 4 4 3 2 2 2 4 7 15 24 30 25 18 13 10 9 9 9 8 7 7 7 8 8 10 11 12 13 14 15 16 17 18 19 21 24 26 26 23 19
-0 -0 -0 -1 -1 -1 -2 -2 -4 -5 -6 -5 -4 -3 -3 -3 -3 -4 -4 -3 -3 -1 1 3 4 4 4 4 5 6 5 4 2 2 3 6 12 19 27 30 24 18 12 9 8 8 8 7 7 7 8 9 10 12 13 13 14 15 15 15 15 15 17 19 23 25 26 25 22
1 0 -1 -2 -3 -3 -3 -3 -4 -3 -3 -2 -2 -2 -3 -4 -5 -5 -5 -4 -2 1 3 3 4 4 5 5 6 6 5 4 2 2 5 10 17 23 28 30 23 17 12 9 8 8 7 7 8 8 9 10 12 14 15 16 16 17 16 16 15 14 14 16 19 21 23 25 24
1 0 -0 -1 -1 -2 -2 -3 -3 -1 0 -0 -1 -1 -2 -4 -5 -4 -3 -1 1 2 3 4 5 6 6 8 8 6 4 3 3 5 9 16 21 26 29 29 22 16 12 10 9 9 9 9 9 10 11 12 14 16 17 17 18 18 18 17 16 14 13 14 17 19 20 22 23
-2 -2 -1 -1 -1 -0 -0 -0 -0 0 1 0 -0 -1 -2 -2 -1 1 3 4 4 5 6 7 8 8 9 9 7 5 4 3 5 10 15 21 24 27 28 25 19 15 13 12 12 12 12 11 11 11 12 12 14 14 15 15 16 17 17 17 16 15 14 14 16 17 18 20 22
-4 -4 -2 -1 -0 0 0 1 1 1 1 0 -0 0 2 5 7 8 8 7 9 10 10 9 10 10 9 8 6 5 4 5 9 15 21 25 26 26 25 22 18 16 15 15 14 14 13 12 11 11 11 11 11 11 10 11 12 14 16 17 16 16 16 15 15 16 16 18 20
-2 -1 -1 -1 0 1 2 3 3 3 3 3 4 8 11 13 12 11 12 13 13 12 11 11 12 11 9 8 6 6 6 9 14 20 25 27 25 24 22 20 18 17 17 16 15 13 12 11 10 10 9 8 7 7 7 7 8 11 13 16 16 16 16 16 15 15 15 17 19
2 2 2 2 3 3 3 4 5 6 6 8 13 15 15 13 13 15 16 15 13 13 14 14 11 9 8 8 8 9 11 16 21 24 25 25 23 22 20 18 17 17 16 15 13 11 9 8 8 8 7 6 6 6 6 6 7 9 12 14 15 16 16 16 15 15 15 16 18
4 4 4 4 5 5 5 6 8 9 11 14 16 15 14 15 17 17 17 15 14 15 15 12 10 9 9 9 11 13 17 22 25 26 24 21 20 19 16 14 13 12 11 10 9 8 7 6 6 6 6 6 6 5 6 6 7 9 11 13 15 15 15 15 15 15 15 15 17
7 7 8 8 9 10 10 12 14 16 18 23 21 19 18 18 17 16 15 14 14 13 12 11 11 11 11 12 15 18 21 25 26 24 20 18 17 14 12 9 8 7 7 6 6 6 6 6 6 5 5 5 5 5 6 7 8 9 11 13 14 15 15 15 15 14 14 15 16
13 14 16 18 19 20 20 21 23 24 25 26 23 21 20 18 17 15 14 13 13 12 12 13 14 14 15 16 18 21 23 25 22 19 16 14 12 10 7 5 4 4 4 4 5 5 6 6 6 5 5 5 5 6 6 7 8 9 11 13 14 15 15 15 14 14 15 15 16
22 25 27 28 29 29 29 29 29 29 28 27 25 22 20 18 18 17 16 14 14 14 14 14 16 18 18 18 19 21 21 20 16 13 11 10 8 6 5 4 3 3 3 4 4 4 5 5 5 5 5 5 6 7 7 8 9 10 11 12 14 14 15 14 14 14 14 15 15
28 31 32 32 32 32 32 31 29 28 26 25 23 21 20 19 19 18 17 16 16 16 15 15 17 18 18 18 18 18 17 15 11 9 7 6 6 5 4 4 4 4 4 4 4 4 4 4 5 5 6 6 7 8 9 10 10 11 12 12 13 14 14 14 13 12 12 12 13
27 28 28 28 28 27 26 25 23 22 21 21 20 19 19 19 18 18 18 18 17 16 16 17 16 15 15 15 15 14 12 10 8 7 6 5 5 5 5 5 5 5 5 5 5 4 4 5 5 6 7 8 9 10 11 11 12 12 12 12 12 13 14 14 12 11 10 10 10
22 22 21 21 20 19 18 16 16 16 16 16 16 17 18 17 17 17 18 17 16 16 16 16 14 13 12 11 11 10 9 8 7 6 6 6 6 5 5 5 5 5 5 5 5 5 5 6 6 7 8 9 10 11 12 12 13 13 12 11 10 11 12 13 12 11 10 9 10
19 17 15 14 13 12 11 10 10 10 11 11 12 13 14 14 15 15 16 16 17 17 16 14 12 11 10 8 8 9 9 8 6 5 5 6 5 5 4 4 4 4 5 5 5 5 6 7 8 9 10 10 11 12 12 13 13 13 12 10 9 8 8 9 11 11 11 11 12
15 13 11 10 9 8 8 8 8 8 8 8 9 9 10 11 12 12 13 15 16 17 17 15 13 12 11 10 10 10 11 9 7 4 3 3 3 3 3 3 4 4 5 5 6 6 8 9 9 10 11 11 12 12 13 13 14 14 13 11 9 7 6 7 8 9 10 11 12
12 10 9 8 7 7 7 8 8 8 8 8 7 8 8 8 9 10 11 12 14 15 16 17 16 16 15 14 14 15 15 14 10 7 4 3 3 4 4 5 5 6 6 6 7 8 9 10 10 11 11 12 12 12 13 13 14 15 15 14 11 9 8 7 7 8 9 10 10
9 8 7 7 7 8 8 9 9 9 9 9 8 8 8 8 8 9 10 10 11 12 13 14 16 17 17 18 19 19 18 17 15 12 10 8 8 8 8 8 8 8 8 9 9 10 10 10 11 11 11 12 12 12 13 13 15 16 18 18 16 14 12 9 8 7 6 7 8
8 7 6 7 8 9 10 11 11 11 11 10 10 9 9 9 9 9 10 10 9 9 10 10 12 13 15 16 18 18 18 18 17 16 15 14 13 12 12 11 11 11 11 11 11 11 11 11 11 11 12 12 12 12 12 13 14 16 19 21 21 19 15 12 9 7 6 5 6
7 6 7 8 10 11 12 12 12 12 12 11 11 10 10 10 10 10 11 11 11 10 9 9 9 9 10 11 13 14 15 16 16 16 15 15 14 14 13 13 13 13 13 13 13 13 12 12 12 12 12 12 12 12 11 12 12 14 16 20 22 21 18 15 13 11 9 6 5
7 7 8 9 11 12 13 13 12 12 11 11 11 11 11 11 11 11 11 11 12 12 11 10 9 8 8 8 9 10 11 12 13 13 13 13 13 13 13 14 14 14 15 15 15 15 14 14 14 13 13 12 12 11 11 11 11 12 13 15 18 19 18 16 16 15 13 10 8
7 7 9 11 12 13 13 12 11 11 10 10 11 12 13 13 12 12 12 12 12 13 13 12 11 9 8 7 7 8 8 9 10 10 11 11 12 12 13 14 15 15 16 16 16 16 15 15 14 14 13 12 12 11 11 11 11 11 11 12 12 13 14 15 15 16 15 13 10
7 8 9 11 12 12 12 11 10 10 10 10 12 13 14 15 15 14 14 13 13 13 14 13 13 11 10 8 7 7 7 8 8 8 8 9 10 12 13 15 15 16 16 17 16 16 15 14 13 13 12 12 11 11 11 12 12 12 12 11 10 9 9 10 12 12 12 11 10
7 8 10 11 12 12 11 10 9 9 9 10 12 13 15 16 17 17 17 16 15 15 14 14 14 13 12 10 9 8 7 7 7 7 7 8 9 11 13 15 15 16 16 16 16 15 13 12 11 11 11 11 11 12 12 13 13 13 13 12 11 11 10 10 11 11 11 10 11
7 8 10 11 11 11 10 10 9 9 9 10 11 13 14 16 18 19 19 19 18 16 16 15 15 14 13 12 11 10 9 7 7 6 7 7 9 11 13 15 15 14 14 14 13 13 11 10 9 9 10 10 11 11 12 12 12 13 13 13 12 13 13 13 13 13 13 12 12
8 9 10 11 11 11 10 10 9 9 9 9 10 12 13 15 17 19 20 20 20 19 18 18 16 15 14 14 13 12 10 8 7 7 6 7 9 11 13 15 14 13 12 11 11 10 9 8 8 8 8 8 9 9 10 11 11 12 12 12 13 13 14 15 15 15 15 15 14
8 9 10 10 11 11 10 9 9 9 9 9 10 11 12 14 15 17 19 21 21 21 21 20 18 17 16 16 15 14 13 11 9 8 7 6 8 10 12 14 13 11 9 8 8 7 7 6 6 6 7 7 7 8 8 10 10 11 11 11 12 12 13 14 15 15 15 15 15
8 9 10 11 11 11 10 10 9 9 10 10 11 11 12 13 14 16 18 19 20 21 20 20 19 19 18 18 17 16 15 13 11 9 8 7 7 9 11 12 11 9 7 6 6 5 5 5 6 6 6 6 6 6 7 9 10 10 10 10 11 11 12 13 13 14 14 15 15
9 9 10 11 11 11 11 10 10 9 9 9 10 11 12 13 14 16 17 19 19 19 19 20 20 20 20 19 18 18 17 16 14 12 10 8 7 7 8 10 10 9 7 5 5 4 4 4 5 5 6 6 6 6 6 7 8 9 10 10 10 11 12 12 13 13 14 14 15
8 9 10 11 11 11 10 10 9 8 8 8 8 10 12 14 15 16 17 18 18 18 18 19 19 19 19 19 19 19 19 18 17 16 14 11 9 7 7 8 8 8 7 5 4 4 3 3 4 4 5 6 6 6 6 6 7 8 9 10 10 11 11 12 12 13 13 14 15
8 10 11 11 10 10 9 8 8 8 8 7 8 9 11 14 16 17 18 18 18 17 17 17 17 18 18 19 19 19 19 19 19 18 17 15 12 9 7 7 7 7 7 6 5 4 3 3 3 3 4 4 5 6 6 6 6 6 7 9 9 10 10 11 12 12 13 14 14
9 10 11 10 9 8 7 7 8 8 8 8 8 9 10 13 15 17 18 18 17 17 16 16 16 17 17 18 18 19 19 19 20 20 19 18 16 13 11 8 7 6 6 5 5 4 4 3 3 3 3 3 4 5 6 6 6 6 6 7 8 9 9 10 11 11 12 13 14
9 10 10 9 7 6 6 6 8 9 9 9 9 10 11 12 14 17 18 18 17 17 16 16 15 16 16 16 17 17 18 19 19 20 21 20 19 18 16 13 9 7 5 4 4 4 4 4 3 3 3 3 3 4 5 5 6 6 6 6 7 7 8 9 9 10 11 12 14
8 9 9 8 6 5 5 6 8 10 10 10 10 11 11 13 15 16 18 18 17 17 16 15 15 15 15 15 16 16 17 17 18 19 20 21 21 21 20 18 15 11 8 5 4 3 3 3 3 3 3 3 3 3 4 4 5 6 6 6 6 7 7 8 8 8 9 11 13
7 8 8 7 6 5 5 6 8 10 11 12 12 12 12 13 15 16 17 17 17 16 16 15 15 15 15 15 15 15 16 16 17 17 18 19 20 21 21 21 20 17 13 9 6 4 3 2 3 3 3 3 3 3 3 3 4 5 6 6 6 7 7 7 7 7 8 9 12
6 7 7 6 5 5 5 7 9 10 12 13 13 13 13 14 15 17 17 17 16 16 15 15 15 15 15 15 15 15 15 15 16 16 16 17 18 19 21 21 22 21 19 16 11 8 5 3 2 2 3 3 3 3 3 3 3 4 5 6 6 7 7 8 7 7 7 8 11
5 6 6 5 5 6 7 8 9 11 13 14 14 14 14 14 16 17 17 17 16 16 15 15 15 15 15 16 15 15 15 15 15 15 15 15 16 17 18 20 22 23 23 22 18 14 10 6 4 3 3 3 3 3 3 2 3 4 5 6 6 7 8 8 8 8 8 8 11
5 5 5 5 6 7 8 9 11 12 13 14 14 14 15 15 17 18 18 17 16 15 15 15 15 15 16 16 16 16 16 16 16 15 15 14 14 15 16 17 20 22 24 25 23 20 16 12 8 5 4 3 3 3 3 2 2 3 5 6 7 7 8 8 9 9 9 9 11
Height
3072 3071 3070 3069 3068 3067 3067 3066 3065 3064 3063 3062 3061 3060 3058 3057 3056 3055 3054 3052 3051 3050 3048 3047 3047 3046 3044 3043 3042 3041 3040 3038 3037 3035 3034 3033 3032 3031 3029 3028 3026 3025 3023 3022 3020 3018 3016 3015 3013 3012 3010 3009 3008 3007 3006 3005 3004 3003 3002 3001 3000 2999 2998 2997 2997 2997 2997 2997 2997
3070 3069 3068 3067 3066 3065 3064 3063 3062 3061 3060 3059 3058 3057 3056 3054 3053 3052 3051 3049 3048 3047 3046 3044 3043 3042 3040 3039 3037 3036 3035 3034 3032 3031 3030 3028 3027 3026 3025 3024 3022 3021 3019 3018 3016 3014 3012 3011 3009 3008 3007 3005 3004 3003 3002 3001 3000 2999 2997 2997 2996 2995 2994 2993 2993 2993 2993 2993 2993
3068 3067 3066 3064 3063 3062 3061 3060 3059 3058 3057 3056 3055 3053 3052 3051 3050 3048 3047 3046 3045 3043 3042 3041 3039 3037 3036 3034 3033 3032 3030 3029 3028 3027 3026 3024 3023 3022 3021 3019 3018 3017 3015 3013 3012 3010 3008 3007 3006 3004 3003 3002 3001 3000 2999 2998 2997 2995 2994 2993 2992 2991 2990 2989 2989 2989 2989 2989 2989
3065 3064 3063 3062 3061 3059 3058 3057 3056 3055 3054 3052 3051 3050 3049 3047 3046 3045 3044 3043 3041 3040 3038 3037 3035 3033 3031 3030 3028 3027 3026 3025 3023 3022 3021 3020 3019 3018 3016 3015 3014 3012 3011 3009 3008 3007 3005 3004 3002 3001 3000 2999 2998 2997 2996 2994 2993 2992 2990 2989 2988 2987 2986 2985 2985 2985 2985 2985 2985
3062 3061 3060 3059 3057 3056 3055 3054 3053 3052 3050 3049 3047 3046 3045 3044 3042 3041 3040 3038 3037 3036 3034 3032 3031 3029 3027 3025 3024 3022 3021 3020 3019 3018 3017 3016 3015 3013 3012 3011 3009 3008 3007 3006 3004 3003 3002 3001 2999 2998 2997 2995 2994 2993 2992 2991 2989 2988 2987 2986 2984 2983 2982 2982 2981 2981 2981 2981 2981
3060 3058 3057 3056 3054 3053 3052 3051 3049 3048 3046 3045 3043 3042 3041 3040 3038 3037 3035 3034 3033 3031 3030 3028 3026 3025 3023 3021 3019 3018 3017 3016 3015 3014 3012 3011 3010 3009 3007 3007 3006 3004 3003 3002 3001 3000 2999 2997 2996 2994 2993 2992 2991 2989 2988 2987 2986 2984 2983 2982 2981 2980 2978 2977 2977 2977 2977 2977 2977
3057 3055 3054 3052 3051 3050 3048 3047 3045 3044 3042 3041 3040 3038 3037 3036 3034 3032 3031 3030 3028 3027 3025 3023 3022 3020 3019 3017 3015 3013 3012 3011 3010 3009 3008 3007 3006 3004 3003 3003 3002 3001 3000 2999 2997 2997 2995 2994 2992 2991 2990 2988 2987 2986 2985 2983 2982 2981 2979 2978 2977 2976 2975 2974 2973 2973 2973 2973 2973
3054 3052 3051 3049 3048 3046 3044 3043 3041 3040 3038 3037 3036 3034 3033 3031 3029 3028 3026 3025 3023 3022 3021 3019 3017 3016 3014 3012 3011 3009 3008 3007 3005 3004 3003 3002 3001 3000 3000 2999 2998 2997 2997 2995 2994 2993 2992 2990 2989 2987 2986 2985 2983 2982 2981 2980 2978 2977 2976 2975 2974 2973 2972 2971 2970 2969 2969 2969 2969
3050 3049 3047 3046 3044 3042 3041 3039 3037 3036 3034 3032 3031 3030 3028 3027 3025 3023 3022 3020 3018 3017 3016 3014 3013 3011 3010 3008 3007 3005 3003 3002 3001 3000 2999 2998 2997 2996 2996 2996 2995 2994 2993 2992 2991 2989 2988 2987 2985 2984 2982 2981 2980 2978 2977 2976 2975 2973 2973 2972 2971 2969 2968 2967 2966 2966 2965 2965 2965
3047 3045 3043 3042 3040 3038 3036 3035 3033 3031 3030 3028 3027 3025 3024 3022 3020 3018 3017 3015 3013 3012 3011 3009 3008 3007 3005 3004 3002 3001 2999 2998 2997 2995 2994 2993 2993 2992 2992 2992 2992 2991 2989 2988 2987 2985 2984 2983 2982 2980 2979 2977 2976 2975 2973 2972 2971 2970 2969 2968 2967 2966 2965 2964 2963 2962 2962 2961 2961
3042 3041 3039 3037 3035 3034 3032 3030 3028 3027 3025 3023 3022 3021 3019 3017 3015 3014 3012 3010 3009 3007 3006 3005 3003 3002 3001 3000 2998 2997 2995 2993 2992 2991 2990 2989 2989 2989 2988 2988 2988 2987 2986 2984 2983 2982 2980 2979 2978 2977 2975 2974 2972 2971 2969 2968 2967 2967 2966 2965 2964 2962 2961 2960 2959 2958 2958 2957 2957
3038 3037 3035 3033 3031 3029 3027 3026 3024 3022 3020 3019 3017 3016 3014 3013 3011 3010 3008 3006 3004 3003 3002 3000 2998 2997 2996 2995 2994 2992 2991 2989 2988 2987 2986 2986 2985 2985 2984 2984 2984 2983 2982 2981 2979 2977 2976 2975 2974 2973 2972 2970 2969 2967 2966 2965 2964 2963 2962 2961 2960 2959 2958 2957 2956 2955 2954 2954 2954
3034 3032 3031 3029 3027 3025 3023 3021 3019 3017 3015 3014 3012 3011 3010 3008 3007 3006 3004 3002 3000 2999 2997 2996 2994 2992 2991 2990 2989 2988 2987 2985 2984 2983 2982 2982 2981 2981 2980 2980 2979 2979 2978 2977 2975 2974 2972 2971 2970 2969 2968 2967 2965 2963 2962 2961 2960 2959 2958 2957 2957 2955 2954 2953 2952 2952 2951 2950 2950
3030 3028 3026 3024 3022 3020 3018 3016 3014 3012 3011 3009 3008 3006 3005 3004 3002 3001 2999 2998 2996 2995 2993 2992 2990 2988 2987 2986 2985 2984 2982 2982 2981 2979 2978 2978 2977 2977 2976 2976 2975 2974 2974 2972 2971 2970 2969 2967 2967 2965 2964 2963 2961 2960 2959 2957 2956 2955 2955 2954 2953 2952 2951 2950 2949 2948 2947 2947 2947
3025 3023 3021 3019 3017 3016 3014 3012 3010 3008 3007 3005 3003 3002 3001 2999 2998 2997 2995 2993 2992 2991 2989 2987 2986 2984 2983 2982 2981 2980 2979 2978 2977 2976 2975 2974 2973 2973 2972 2972 2971 2970 2970 2968 2967 2966 2965 2964 2963 2962 2960 2959 2958 2957 2955 2954 2952 2952 2951 2950 2949 2948 2947 2946 2945 2944 2944 2943 2943
3020 3018 3017 3015 3013 3012 3010 3008 3006 3004 3003 3001 3000 2998 2997 2995 2994 2992 2991 2989 2988 2987 2985 2984 2982 2981 2979 2978 2977 2976 2975 2974 2973 2972 2972 2971 2970 2969 2968 2968 2967 2967 2966 2965 2963 2962 2961 2960 2959 2958 2957 2955 2954 2953 2952 2950 2949 2948 2947 2947 2946 2945 2944 2943 2942 2941 2940 2940 2940
3017 3015 3013 3011 3010 3008 3006 3004 3002 3001 2999 2997 2996 2995 2993 2992 2990 2988 2987 2986 2984 2983 2981 2980 2979 2977 2976 2975 2974 2973 2972 2971 2970 2969 2968 2967 2967 2966 2965 2964 2964 2963 2962 2961 2960 2959 2958 2957 2955 2954 2952 2952 2950 2949 2948 2947 2945 2944 2944 2943 2942 2941 2940 2939 2938 2937 2937 2937 2936
3013 3012 3010 3008 3006 3005 3003 3001 2999 2997 2996 2994 2992 2991 2989 2988 2986 2985 2983 2982 2981 2979 2978 2977 2975 2974 2973 2972 2970 2969 2968 2967 2967 2966 2965 2964 2963 2962 2962 2961 2960 2959 2958 2957 2956 2955 2954 2953 2951 2950 2948 2947 2946 2945 2944 2943 2942 2941 2940 2940 2939 2938 2937 2936 2935 2934 2933 2933 2933
3010 3008 3007 3005 3003 3002 3000 2998 2996 2994 2992 2991 2989 2987 2986 2985 2983 2982 2980 2978 2977 2976 2974 2973 2972 2971 2969 2968 2967 2966 2965 2964 2963 2962 2961 2961 2960 2959 2958 2957 2957 2956 2955 2954 2953 2952 2951 2949 2948 2946 2944 2943 2942 2941 2940 2939 2938 2937 2937 2936 2935 2935 2934 2933 2932 2931 2930 2930 2929
3007 3006 3004 3002 3001 2999 2997 2995 2993 2991 2989 2987 2986 2984 2982 2981 2980 2978 2977 2975 2974 2972 2971 2969 2968 2967 2966 2965 2963 2962 2961 2960 2959 2958 2958 2957 2957 2956 2955 2954 2953 2952 2951 2950 2949 2948 2947 2946 2944 2942 2941 2939 2938 2937 2936 2935 2934 2933 2933 2932 2932 2931 2930 2930 2929 2928 2927 2927 2926
3005 3003 3001 2999 2998 2996 2994 2992 2990 2988 2986 2984 2983 2981 2979 2977 2976 2975 2973 2972 2971 2969 2967 2966 2965 2963 2962 2961 2960 2958 2957 2956 2955 2955 2954 2954 2953 2952 2952 2951 2950 2949 2948 2947 2946 2945 2944 2942 2940 2939 2937 2936 2934 2933 2932 2931 2930 2929 2929 2928 2928 2927 2927 2926 2926 2925 2924 2923 2923
3002 3000 2998 2997 2995 2993 2991 2989 2987 2985 2983 2982 2980 2977 2976 2974 2972 2971 2970 2968 2967 2965 2964 2962 2961 2960 2959 2957 2956 2955 2954 2953 2952 2951 2951 2950 2949 2949 2948 2947 2946 2945 2944 2943 2942 2941 2940 2938 2937 2935 2934 2932 2931 2930 2929 2928 2927 2926 2925 2924 2924 2923 2923 2922 2922 2921 2920 2920 2919
2998 2997 2995 2993 2992 2990 2988 2986 2984 2982 2980 2978 2976 2974 2972 2971 2969 2967 2966 2964 2963 2962 2960 2959 2957 2956 2955 2954 2952 2952 2950 2949 2948 2947 2947 2946 2946 2945 2944 2944 2943 2942 2941 2940 2939 2938 2936 2935 2933 2932 2930 2929 2927 2926 2925 2924 2923 2922 2922 2921 2920 2920 2919 2919 2918 2917 2917 2916 2916
2995 2993 2992 2990 2988 2987 2985 2983 2981 2979 2977 2975 2973 2971 2969 2967 2965 2963 2962 2961 2959 2958 2957 2955 2954 2953 2951 2950 2949 2948 2947 2946 2945 2944 2943 2943 2942 2941 2941 2940 2939 2938 2937 2937 2936 2934 2933 2931 2930 2928 2927 2925 2924 2923 2922 2921 2920 2919 2918 2917 2917 2916 2915 2915 2914 2913 2913 2912 2912
2992 2990 2988 2987 2985 2983 2982 2980 2978 2976 2974 2972 2970 2968 2966 2964 2962 2960 2958 2957 2955 2954 2953 2952 2950 2949 2948 2947 2945 2944 2943 2942 2942 2941 2940 2939 2938 2938 2937 2936 2936 2935 2934 2933 2932 2931 2930 2928 2926 2925 2923 2922 2921 2920 2919 2918 2917 2916 2915 2914 2913 2913 2912 2911 2910 2910 2909 2908 2908
2989 2987 2985 2984 2982 2980 2978 2977 2975 2972 2970 2968 2966 2964 2962 2960 2958 2957 2955 2953 2951 2950 2949 2947 2946 2945 2944 2943 2942 2941 2940 2939 2938 2937 2937 2936 2935 2934 2933 2933 2932 2931 2931 2930 2929 2928 2926 2924 2923 2921 2920 2919 2918 2917 2916 2915 2914 2913 2912 2911 2910 2909 2908 2907 2907 2906 2905 2905 2904
2986 2984 2982 2981 2979 2977 2975 2973 2972 2969 2967 2965 2963 2961 2958 2957 2955 2953 2951 2949 2947 2946 2945 2943 2942 2941 2940 2939 2938 2937 2936 2936 2935 2934 2933 2932 2932 2931 2930 2929 2929 2928 2927 2927 2926 2924 2922 2921 2919 2918 2917 2916 2915 2914 2912 2912 2911 2910 2909 2908 2907 2906 2905 2904 2903 2903 2902 2901 2900
2983 2981 2979 2977 2976 2974 2972 2970 2968 2966 2964 2962 2960 2957 2955 2953 2951 2949 2947 2945 2944 2942 2941 2939 2938 2937 2936 2935 2934 2934 2933 2932 2931 2930 2929 2929 2928 2927 2927 2926 2925 2925 2924 2923 2922 2921 2919 2917 2916 2915 2913 2912 2911 2910 2910 2908 2907 2907 2905 2904 2903 2902 2901 2901 2900 2899 2898 2897 2897
2980 2978 2976 2974 2972 2971 2969 2967 2965 2963 2961 2959 2957 2955 2952 2950 2948 2946 2943 2942 2940 2938 2937 2935 2934 2933 2932 2931 2931 2930 2929 2928 2927 2927 2926 2925 2924 2924 2923 2923 2922 2921 2921 2920 2919 2917 2916 2914 2913 2912 2910 2908 2907 2906 2906 2905 2904 2903 2902 2901 2900 2899 2898 2897 2896 2895 2894 2893 2893
2977 2975 2973 2971 2969 2967 2966 2964 2962 2960 2958 2956 2954 2952 2949 2947 2945 2942 2940 2938 2936 2935 2933 2932 2930 2929 2928 2927 2927 2926 2925 2925 2924 2923 2922 2921 2921 2920 2920 2919 2918 2918 2917 2917 2915 2914 2913 2912 2910 2908 2907 2905 2903 2902 2902 2902 2901 2900 2899 2898 2897 2896 2894 2893 2892 2891 2891 2890 2889
2975 2972 2970 2968 2966 2964 2962 2961 2959 2957 2954 2952 2950 2948 2946 2944 2942 2939 2937 2935 2933 2931 2929 2928 2927 2925 2924 2924 2923 2922 2921 2921 2920 2919 2918 2918 2917 2917 2916 2916 2915 2914 2914 2913 2912 2911 2910 2908 2907 2905 2904 2902 2899 2897 2897 2897 2897 2897 2896 2895 2893 2892 2891 2890 2889 2888 2887 2886 2885
2972 2970 2967 2965 2963 2961 2959 2957 2955 2953 2951 2949 2947 2944 2942 2940 2938 2936 2934 2932 2930 2927 2926 2924 2923 2922 2921 2920 2919 2918 2917 2917 2916 2915 2915 2914 2913 2913 2912 2912 2912 2911 2911 2910 2909 2907 2906 2905 2903 2902 2901 2899 2897 2894 2892 2892 2893 2893 2892 2892 2891 2889 2888 2887 2885 2884 2883 2882 2881
2969 2967 2965 2962 2960 2958 2956 2954 2952 2949 2947 2945 2943 2941 2939 2937 2934 2932 2930 2928 2926 2924 2922 2921 2919 2918 2917 2916 2915 2914 2913 2912 2912 2911 2911 2910 2909 2909 2908 2908 2908 2908 2907 2907 2905 2904 2903 2902 2900 2899 2897 2896 2893 2891 2889 2888 2888 2888 2889 2888 2887 2887 2885 2883 2882 2881 2880 2879 2878
2966 2964 2962 2959 2957 2955 2952 2950 2948 2946 2944 2942 2940 2938 2936 2933 2931 2929 2927 2925 2923 2921 2919 2917 2916 2914 2913 2912 2911 2910 2909 2908 2907 2907 2906 2906 2905 2905 2904 2904 2904 2904 2904 2903 2902 2901 2899 2898 2897 2896 2894 2892 2890 2888 2886 2885 2884 2884 2884 2885 2884 2883 2882 2881 2879 2878 2877 2876 2874
2963 2961 2958 2956 2954 2951 2949 2947 2945 2943 2941 2939 2937 2935 2933 2931 2928 2926 2924 2921 2919 2917 2916 2914 2912 2911 2909 2908 2907 2906 2905 2904 2903 2902 2902 2902 2901 2900 2900 2900 2900 2901 2900 2899 2898 2897 2896 2895 2894 2892 2891 2889 2887 2885 2883 2882 2880 2880 2880 2880 2880 2880 2879 2878 2876 2875 2873 2872 2871
2959 2957 2955 2952 2950 2948 2946 2944 2942 2939 2937 2936 2933 2931 2929 2927 2925 2923 2921 2918 2916 2914 2912 2911 2909 2907 2906 2905 2903 2902 2901 2900 2899 2898 2898 2897 2897 2896 2896 2896 2896 2896 2896 2895 2894 2893 2892 2891 2890 2889 2887 2885 2883 2882 2880 2879 2877 2876 2875 2876 2876 2876 2876 2874 2873 2872 2871 2869 2868
2956 2954 2952 2949 2947 2945 2943 2941 2938 2936 2934 2932 2930 2928 2926 2924 2922 2920 2917 2915 2912 2911 2909 2907 2906 2904 2902 2901 2900 2898 2897 2896 2895 2894 2893 2893 2892 2892 2891 2891 2891 2892 2892 2891 2890 2889 2888 2887 2886 2885 2883 2882 2880 2878 2877 2876 2874 2872 2872 2871 2871 2872 2872 2871 2870 2869 2867 2866 2865
2953 2951 2949 2946 2944 2942 2940 2937 2935 2933 2931 2929 2927 2925 2922 2920 2918 2916 2914 2912 2909 2907 2905 2904 2902 2901 2899 2897 2896 2895 2894 2893 2892 2890 2889 2889 2888 2887 2887 2886 2886 2887 2887 2887 2886 2885 2884 2883 2882 2881 2879 2877 2876 2875 2874 2872 2871 2869 2868 2867 2867 2867 2867 2867 2867 2866 2865 2863 2862
2950 2948 2946 2943 2941 2939 2936 2934 2932 2930 2927 2925 2923 2921 2919 2917 2915 2912 2910 2908 2906 2904 2902 2900 2899 2897 2896 2894 2892 2891 2890 2889 2888 2887 2886 2885 2884 2883 2882 2882 2882 2882 2882 2882 2881 2881 2880 2879 2878 2877 2875 2874 2872 2871 2870 2869 2867 2866 2865 2864 2863 2862 2862 2863 2862 2862 2862 2861 2860
2947 2945 2943 2941 2938 2936 2933 2931 2928 2926 2924 2922 2919 2917 2915 2913 2911 2909 2907 2905 2903 2901 2899 2897 2895 2894 2892 2891 2889 2887 2887 2886 2884 2883 2882 2881 2880 2879 2878 2877 2877 2877 2877 2877 2877 2876 2876 2875 2874 2873 2871 2870 2868 2867 2866 2865 2864 2863 2862 2861 2860 2859 2858 2858 2858 2858 2858 2857 2857
2944 2942 2940 2937 2935 2932 2930 2927 2925 2922 2920 2918 2916 2914 2912 2910 2907 2906 2903 2902 2899 2897 2895 2893 2892 2890 2889 2887 2886 2884 2883 2882 2881 2879 2878 2877 2876 2875 2874 2873 2873 2872 2872 2872 2872 2871 2871 2870 2869 2868 2867 2866 2864 2863 2862 2861 2860 2860 2859 2858 2857 2855 2854 2853 2853 2853 2854 2854 2853